TimeCST,TemperatureF,Dew PointF,Humidity,Sea Level PressureIn,VisibilityMPH,Wind Direction,Wind SpeedMPH,Gust SpeedMPH,PrecipitationIn,Events,Conditions,WindDirDegrees,DateUTC
12:53 AM,36.0,32.0,86,29.89,10.0,WSW,5.8,-,N/A,,Clear,240,2013-11-15 06:53:00
1:53 AM,37.0,33.1,86,29.87,10.0,WSW,3.5,-,N/A,,Clear,250,2013-11-15 07:53:00
2:53 AM,35.1,32.0,89,29.86,10.0,SSW,5.8,-,N/A,,Clear,200,2013-11-15 08:53:00
3:53 AM,37.9,33.1,83,29.84,10.0,SW,8.1,-,N/A,,Clear,220,2013-11-15 09:53:00
4:53 AM,37.0,33.1,86,29.83,10.0,South,6.9,-,N/A,,Clear,190,2013-11-15 10:53:00
5:53 AM,35.1,30.9,85,29.82,10.0,South,4.6,-,N/A,,Clear,170,2013-11-15 11:53:00
6:53 AM,36.0,30.9,82,29.80,10.0,South,5.8,-,N/A,,Clear,170,2013-11-15 12:53:00
7:53 AM,36.0,30.9,82,29.81,10.0,SE,5.8,-,N/A,,Clear,140,2013-11-15 13:53:00
8:53 AM,39.9,33.1,77,29.81,10.0,SSE,4.6,-,N/A,,Clear,160,2013-11-15 14:53:00
9:53 AM,48.9,37.0,64,29.77,10.0,South,9.2,-,N/A,,Clear,170,2013-11-15 15:53:00
10:53 AM,54.0,37.0,53,29.73,10.0,SSE,18.4,27.6,N/A,,Clear,160,2013-11-15 16:53:00
11:53 AM,57.9,36.0,44,29.71,10.0,South,20.7,28.8,N/A,,Clear,190,2013-11-15 17:53:00
12:53 PM,57.9,35.1,42,29.64,10.0,South,20.7,25.3,N/A,,Clear,170,2013-11-15 18:53:00
1:53 PM,61.0,34.0,36,29.60,10.0,South,16.1,24.2,N/A,,Clear,190,2013-11-15 19:53:00
2:53 PM,62.1,34.0,35,29.56,10.0,South,15.0,23.0,N/A,,Clear,190,2013-11-15 20:53:00
3:53 PM,62.1,35.1,37,29.55,10.0,South,12.7,-,N/A,,Clear,180,2013-11-15 21:53:00
4:53 PM,57.9,35.1,42,29.56,10.0,SE,5.8,-,N/A,,Clear,140,2013-11-15 22:53:00
5:53 PM,51.1,34.0,52,29.55,10.0,ESE,8.1,-,N/A,,Clear,110,2013-11-15 23:53:00
6:53 PM,48.9,35.1,59,29.55,10.0,North,-9999.0,-,N/A,,Clear,0,2013-11-16 00:53:00
7:53 PM,46.0,35.1,66,29.55,10.0,East,8.1,21.9,N/A,,Clear,90,2013-11-16 01:53:00
8:53 PM,45.0,34.0,65,29.53,10.0,SE,10.4,-,N/A,,Clear,130,2013-11-16 02:53:00
9:53 PM,43.0,34.0,71,29.50,10.0,SE,8.1,-,N/A,,Clear,140,2013-11-16 03:53:00
10:53 PM,44.1,35.1,71,29.46,10.0,SE,10.4,-,N/A,,Clear,130,2013-11-16 04:53:00
11:53 PM,41.0,35.1,79,29.44,10.0,North,5.8,-,N/A,,Clear,360,2013-11-16 05:53:00